Tampa Macdill AFB, FL

1:15 PM EST on December 06, 2019 (GMT -0500)
MacDill Air Force Base

Weather History for KMCF - August, 2019

Change the Weather History Date:

Wednesday, August 21, 2019

  Actual Average Record
Temperature  
Mean Temperature 83 °F -  
Max Temperature 91 °F 88 °F 97 °F (2014)
Min Temperature 75 °F 73 °F 71 °F (2002)
Cooling Degree Days 18    
Growing Degree Days 33 (Base 50)    
Moisture  
Dew Point 74 °F    
Average Humidity 76    
Maximum Humidity 94    
Minimum Humidity 51    
Precipitation  
Precipitation 0.00 in - - ()
Sea Level Pressure  
Sea Level Pressure 30.08 in    
Wind  
Wind Speed 4 mph (ESE)    
Max Wind Speed 10 mph    
Max Gust Speed -    
Visibility 10 miles    
Events Rain , Thunderstorm    
Averages and records for this station are not official NWS values.
T = Trace of Precipitation, MM = Missing Value Source: NWS Daily Summary

Daily Weather History Graph

Daily Weather History Graph

Search for Another Location

Airport or City:

Astronomy

Aug. 21, 2019 Rise Set
Actual Time 7:03 AM EDT 8:02 PM EDT
Civil Twilight 6:39 AM EDT 8:26 PM EDT
Nautical Twilight 6:10 AM EDT 8:55 PM EDT
Astronomical Twilight 5:40 AM EDT 9:24 PM EDT
Moon 11:49 PM EDT (8/21) 12:10 PM EDT (8/21)
Length of Visible Light 13h 47m
Length of Day
12h 59m
Waning Gibbous, 69% of the Moon is Illuminated
Aug 21
Waning Gibbous
Aug 23
Last Quarter
Aug 30
New
Sep 5
First Quarter
Sep 14
Full

Hourly Weather History & Observations

Time (EDT) Temp. Heat Index Dew Point Humidity Pressure Visibility Wind Dir Wind Speed Gust Speed Precip Events Conditions
12:06 AM 78.8 °F - 75.2 °F 89% 30.11 in 10.0 mi Calm Calm - N/A   Light Drizzle
12:07 AM 78.8 °F - 75.2 °F 89% 30.11 in 10.0 mi Calm Calm - N/A   Partly Cloudy
12:37 AM 77.0 °F - 75.2 °F 94% 30.10 in 10.0 mi Calm Calm - N/A Rain Light Rain
12:46 AM 77.0 °F - 75.2 °F 94% 30.10 in 10.0 mi Calm Calm - N/A   Partly Cloudy
12:56 AM 77.4 °F - 75.2 °F 93% 30.09 in 10.0 mi Calm Calm - 0.00 in   Partly Cloudy
1:56 AM 77.4 °F - 75.2 °F 93% 30.08 in 10.0 mi ESE 4.6 mph - N/A   Clear
2:56 AM 77.7 °F - 74.5 °F 90% 30.07 in 10.0 mi East 4.6 mph - N/A   Clear
3:56 AM 77.4 °F - 74.1 °F 90% 30.07 in 10.0 mi East 5.8 mph - N/A   Clear
4:56 AM 77.0 °F - 73.8 °F 90% 30.07 in 10.0 mi East 4.6 mph - N/A   Clear
5:56 AM 75.6 °F - 73.4 °F 93% 30.07 in 10.0 mi East 4.6 mph - N/A   Clear
6:56 AM 76.6 °F - 73.8 °F 91% 30.08 in 10.0 mi East 5.8 mph - N/A   Clear
7:56 AM 78.4 °F - 75.2 °F 90% 30.09 in 10.0 mi East 8.1 mph - N/A   Clear
8:56 AM 81.1 °F 87.6 °F 75.7 °F 84% 30.10 in 10.0 mi ESE 9.2 mph - N/A   Clear
9:56 AM 82.4 °F 89.5 °F 75.2 °F 79% 30.11 in 10.0 mi SE 10.4 mph - N/A   Clear
10:56 AM 85.3 °F 93.4 °F 74.7 °F 70% 30.12 in 10.0 mi ESE 8.1 mph - N/A   Clear
11:56 AM 86.7 °F 95.0 °F 73.9 °F 66% 30.12 in 10.0 mi SSE 9.2 mph - N/A   Clear
12:56 PM 88.3 °F 96.4 °F 73.6 °F 61% 30.10 in 10.0 mi SE 5.8 mph - N/A   Clear
1:56 PM 89.4 °F 97.3 °F 72.7 °F 58% 30.08 in 10.0 mi East 9.2 mph - N/A   Scattered Clouds
2:08 PM 89.6 °F 96.2 °F 71.6 °F 55% 30.08 in 10.0 mi SSE 6.9 mph - N/A   Light Drizzle
2:11 PM 89.6 °F 98.2 °F 73.4 °F 59% 30.08 in 10.0 mi South 8.1 mph - N/A   Mostly Cloudy
2:14 PM 89.6 °F 98.2 °F 73.4 °F 59% 30.07 in 10.0 mi South 6.9 mph - N/A   Light Drizzle
2:18 PM 91.4 °F 100.1 °F 73.4 °F 55% 30.07 in 10.0 mi South 5.8 mph - N/A   Mostly Cloudy
2:48 PM 89.6 °F 98.2 °F 73.4 °F 59% 30.06 in 10.0 mi ESE 6.9 mph - N/A   Light Drizzle
2:56 PM 90.5 °F 98.1 °F 72.5 °F 55% 30.06 in 10.0 mi ESE 6.9 mph - 0.00 in   Light Drizzle
3:01 PM 89.6 °F 98.2 °F 73.4 °F 59% 30.06 in 10.0 mi East 3.5 mph - N/A   Scattered Clouds
3:56 PM 90.9 °F 98.3 °F 72.3 °F 54% 30.05 in 10.0 mi East 6.9 mph - 0.00 in   Partly Cloudy
4:56 PM 91.0 °F 97.1 °F 70.9 °F 51% 30.04 in 10.0 mi SSE 4.6 mph - N/A   Clear
5:56 PM 91.6 °F 99.9 °F 73.0 °F 54% 30.03 in 10.0 mi SSE 8.1 mph - N/A   Clear
6:56 PM 87.4 °F 97.7 °F 75.9 °F 68% 30.03 in 10.0 mi SW 9.2 mph - N/A   Clear
7:56 PM 86.0 °F 95.1 °F 75.4 °F 70% 30.03 in 10.0 mi WNW 4.6 mph - N/A Thunderstorm Scattered Clouds
8:02 PM 86.0 °F 95.1 °F 75.2 °F 70% 30.03 in 10.0 mi WNW 5.8 mph - N/A Thunderstorm Thunderstorm
8:35 PM 84.2 °F 92.3 °F 75.2 °F 74% 30.04 in 10.0 mi NW 5.8 mph - N/A Thunderstorm Scattered Clouds
8:56 PM 82.8 °F 88.7 °F 73.2 °F 73% 30.04 in 10.0 mi North 8.1 mph - N/A Thunderstorm Partly Cloudy
9:06 PM 80.6 °F 85.4 °F 73.4 °F 79% 30.05 in 10.0 mi NNE 5.8 mph - N/A Thunderstorm Thunderstorm
9:40 PM 80.6 °F 83.2 °F 68.0 °F 65% 30.07 in 10.0 mi ESE 3.5 mph - N/A Thunderstorm Mostly Cloudy
9:42 PM 80.6 °F 83.2 °F 68.0 °F 65% 30.07 in 10.0 mi Calm Calm - N/A Thunderstorm Light Drizzle
9:56 PM 78.1 °F - 71.4 °F 80% 30.08 in 10.0 mi Calm Calm - 0.00 in Rain , Thunderstorm Light Rain
10:25 PM 77.0 °F - 73.4 °F 89% 30.08 in 10.0 mi ENE 3.5 mph - N/A   Mostly Cloudy
10:56 PM 77.2 °F - 73.6 °F 89% 30.10 in 10.0 mi NNE 3.5 mph - 0.00 in   Scattered Clouds
11:06 PM 77.0 °F - 73.4 °F 89% 30.10 in 10.0 mi Calm Calm - N/A   Light Drizzle
11:09 PM 77.0 °F - 75.2 °F 94% 30.09 in 10.0 mi Calm Calm - N/A   Scattered Clouds
11:42 PM 77.0 °F - 75.2 °F 94% 30.08 in 10.0 mi Calm Calm - N/A   Light Drizzle
11:56 PM 78.4 °F - 75.2 °F 90% 30.08 in 10.0 mi East 3.5 mph - 0.00 in   Light Drizzle
11:57 PM 78.8 °F - 75.2 °F 89% 30.08 in 10.0 mi East 3.5 mph - N/A   Partly Cloudy